Preview of NWS' New Version of Forecast
This preview is not operational and should not be used for support decisions.

Regional Weather Roundup (RWR)

Issued by National Weather Service (NWS)

                            
000
ASUS45 KBOU 162310
RWRCO 

WEATHER ROUNDUP FOR COLORADO
NATIONAL WEATHER SERVICE DENVER/BOULDER CO
400 PM MST SAT FEB 16 2019

NOTE: "FAIR" INDICATES FEW OR NO CLOUDS BELOW 12000 FEET WITH NO
SIGNIFICANT WEATHER AND/OR OBSTRUCTIONS TO VISIBILITY.

COZ001>005-013-030-031-170000-
...NORTHWEST COLORADO...
  
CITY           SKY/WX    TMP DP  RH WIND       PRES   REMARKS
CRAIG          FAIR      26  12  55 W6        29.73R WCI  19          
HAYDEN         FAIR      25  11  55 W14       29.72R WCI  13          
MEEKER         FAIR      27  16  63 N12       29.72R WCI  17          
RANGELY        FAIR      30  15  54 CALM      29.76S                  
RABBIT EARS PA CLOUDY     7   3  85 W15G28    29.53S WCI -11          
STEAMBOAT SPGS PTSUNNY   23  11  61 SW17G23   29.68R WCI   9          
WALDEN         FAIR      18   5  57 W10       29.61R WCI   6          
$$

COZ006>008-011-170000-
...WEST CENTRAL VALLEYS...
  
CITY           SKY/WX    TMP DP  RH WIND       PRES   REMARKS
GRAND JUNCTION FAIR      37  16  42 NW14      29.75R                  
MONTROSE       PTSUNNY   30  16  56 NW16G30   29.77R WCI  19          
EAGLE          PTSUNNY   27   6  41 NW17      29.70R WCI  14          
RIFLE          PTSUNNY   29  18  63 E8        29.74R WCI  21          
DELTA          FAIR      37  22  54 SW13      29.76R                  
NUCLA          PTSUNNY   34   7  32 NW14G21   29.78R WCI  24          
$$

COZ017>023-064>068-170000-
...SOUTHWEST COLORADO...
  
CITY           SKY/WX    TMP DP  RH WIND       PRES   REMARKS
DURANGO        FAIR      31   7  36 W24G33    29.70R WCI  17          
CORTEZ         FLURRIES  32  13  45 NW7G20    29.76R WCI  26          
PAGOSA SPRINGS NOT AVBL                                               
TELLURIDE      CLOUDY    18   9  68 N5        29.71R HAZE    WCI  11  
WOLF CREEK PAS   N/A      5   3  92 W6        29.60S WCI  -6          
$$

COZ009-010-012-014-032>034-037-058>063-170000-
...CENTRAL COLORADO...
  
CITY           SKY/WX    TMP DP  RH WIND       PRES   REMARKS
ASPEN          PTSUNNY   19   8  62 N6        29.66R WCI  11          
BUENA VISTA    CLOUDY    23   9  55 SW14G20   29.59R WCI  10          
COPPER MTN     CLOUDY     5   0  78 NW9       29.49R WCI  -9          
BERTHOUD PASS  CLOUDY    -2 -13  60 NW37      29.38S WCI -31          
COTTONWOOD PAS CLOUDY    16   3  57 W15G31    29.54R HAZE    WCI   1  
GUNNISON       LGT SNOW  19  11  70 W15G24    29.65R WCI   5          
GRANBY         FAIR      17   6  62 W21G31    29.61R HAZE    WCI   0  
KREMMLING      FAIR      25   9  50 W12G21    29.66R WCI  14          
LEADVILLE      SNOW       9   5  84 NW13G23   29.56R VSB 1/4 WCI  -7  
MONARCH PASS     N/A      5   1  85 MISG      29.59R                  
SALIDA         CLOUDY    28  17  63 NW12G29   29.68R WCI  18          
SUNLIGHT       CLOUDY     7   3  85 MISG      29.64S                  
WILKERSON PASS CLOUDY    12   1  62 NW13G23   29.50R WCI  -3          
$$

COZ069>075-170000-
...SAN LUIS VALLEY/SANGRE DE CRISTO MOUNTAINS...
  
CITY           SKY/WX    TMP DP  RH WIND       PRES   REMARKS
ALAMOSA        CLOUDY    25  10  53 NW24G40   29.61R WCI   9          
DEL NORTE      PTSUNNY   26   5  40 N17G25    29.61R WCI  14          
LA VETA PASS   NOT AVBL                                               
SAGUACHE       FAIR      28   1  31 CALM      29.62R                  
$$

COZ035-036-038>040-170000-
...NORTHERN COLORADO FRONT RANGE...
  
CITY           SKY/WX    TMP DP  RH WIND       PRES   REMARKS
DENVER INTL AP HVY SNOW  27  24  89 NW7G17    29.58R VSB 1/4 WCI  19  
AURORA         LGT SNOW  26  26 100 NE14      29.57R FOG     WCI  15  
FRONT RANGE AP FLURRIES N/A N/A N/A N8          N/A                   
ERIE MUNI ARPT FAIR      31  29  90 E6        29.62R WCI  25          
BOULDER MUN AP FAIR      32  30  93 E7        29.55R WCI  26          
CENTENNIAL     FLURRIES  26  24  92 NE14G23   29.56R WCI  14          
BROOMFIELD     PTSUNNY   32  28  86 E9        29.54R WCI  24          
FORT COLLINS   FAIR      36   6  28 NW25      29.57R                  
LONGMONT       PTSUNNY   35  28  76 SE8       29.58R WCI  29          
$$

COZ041-046-047-076>085-087-088-170000-
...PIKES PEAK/PALMER DIVIDE AND SOUTHERN FOOTHILLS...
  
CITY           SKY/WX    TMP DP  RH WIND       PRES   REMARKS
COLO. SPRINGS  PTSUNNY   32  19  58 N28G38    29.51R WCI  18          
A. F. ACADEMY  FLURRIES  29  22  75 N17G23    29.50R WCI  16          
SCHRIEVER AFB  NOT AVBL                                               
CHEYENNE MTN   LGT SNOW  27  22  84 N14G22    29.46R WCI  15          
ELLICOTT       NOT AVBL                                               
FALCON         LGT SNOW  27  21  79 N14G28    29.51R WCI  16          
FORT CARSON    FAIR      35  19  52 N24G30    29.50R WCI  23          
LIMON          LGT SNOW  27  22  81 NW26G38   29.54R VSB 1   WCI  12  
MONUMENT HILL  LGT SNOW  23  21  93 N17G23    29.54R WCI   9          
CANON CITY     PTSUNNY   41  16  36 W23G35    29.51R                  
WALSENBURG     NOT AVBL                                               
TRINIDAD       PTSUNNY   42  14  32 W31G48    29.52R                  
$$

COZ042>045-048>051-090-091-170000-
...NORTHEAST COLORADO...
  
CITY           SKY/WX    TMP DP  RH WIND       PRES   REMARKS
GREELEY ARPT   FAIR      37   4  25 NW32G39   29.55R                  
AKRON          LGT SNOW  30  25  81 N15G25    29.52R VSB 1   WCI  19  
BURLINGTON     CLOUDY    26  22  84 NE5       29.52R WCI  20          
WRAY           CLOUDY    28  21  74 E3        29.55R                  
YUMA           MOCLDY    28  19  69 NE8       29.52R WCI  20          
STERLING       CLOUDY    37  23  56 N20G25    29.52R                  
HOLYOKE        FLURRIES  28  23  80 CALM      29.54F                  
FORT MORGAN      N/A     36   7  30 NW31G45   29.57R                  
$$

COZ086-089-092>099-170000-
...SOUTHEAST COLORADO...
  
CITY           SKY/WX    TMP DP  RH WIND       PRES   REMARKS
PUEBLO         CLOUDY    40  24  53 N30G41    29.50R                  
LA JUNTA       PTSUNNY   45  22  40 N36G53    29.45R                  
LAMAR          LGT RAIN  37  24  59 NE24G35   29.45R                  
SPRINGFIELD      N/A     53   2  12 W29G48    29.41R                  
$$